Hourly Data Report for October 28, 2016

All times are specified in Local Standard Time (LST). Add 1 hour to adjust for Daylight Saving Time where and when it is observed.

FREDERICTON
NEW BRUNSWICK

45°52'08.000" N
66°32'14.000" W
20.70 m
8101505
71700
YFC

Download Data

Hourly Data (October 2016)
Hourly Data Report for October 28, 2016
Temp Definition
°C
Dew Point Temp Definition
°C
Rel Hum Definition
%
Wind Dir Definition
10's deg

Wind Spd Definition
km/h
Visibility Definition
km
Stn Press Definition
kPa
Hmdx Definition


Wind Chill Definition


Weather Definition


TIME
00:00 Legend Double Dagger -1.0 -2.8 87 5 11 16.1 103.01   -5 LegendNANA
01:00 Legend Double Dagger -0.6 -2.5 87 5 13 16.1 102.96   -5 LegendNANA
02:00 Legend Double Dagger -0.6 -2.2 89 4 11 16.1 102.89   -4 LegendNANA
03:00 Legend Double Dagger -0.3 -2.2 87 4 13 16.1 102.83   -4 LegendNANA
04:00 Legend Double Dagger -0.1 -2.4 85 5 15 16.1 102.72   -5 LegendNANA
05:00 Legend Double Dagger 0.2 -1.9 86 6 17 16.1 102.71     LegendNANA
06:00 Legend Double Dagger -0.2 -2.0 88 4 17 16.1 102.74   -5 LegendNANA
07:00 Legend Double Dagger -0.3 -1.6 91 5 15 16.1 102.66   -5 LegendNANA
08:00 Legend Double Dagger 0.3 -1.0 91 4 17 16.1 102.69     LegendNANA
09:00 Legend Double Dagger 1.4 -0.3 89 5 18 16.1 102.60     LegendNANA
10:00 Legend Double Dagger 2.8 0.1 83 6 17 16.1 102.55     LegendNANA
11:00 Legend Double Dagger 4.4 0.1 73 7 24 16.1 102.48     LegendNANA
12:00 Legend Double Dagger 4.8 0.2 72 6 22 16.1 102.37     LegendNANA
13:00 Legend Double Dagger 4.6 0.0 72 4 26 16.1 102.22     LegendNANA
14:00 Legend Double Dagger 4.4 0.2 74 5 21 16.1 102.16     Rain
15:00 Legend Double Dagger 3.7 1.4 85 5 24 12.9 102.11     Rain
16:00 Legend Double Dagger 3.4 1.8 89 5 17 12.9 102.11     Rain
17:00 Legend Double Dagger 2.8 1.8 93 4 21 11.3 102.03     Rain
18:00 Legend Double Dagger 2.8 2.1 95 2 18 16.1 102.00     Rain
19:00 Legend Double Dagger 2.7 1.9 95 3 15 16.1 101.96     Rain
20:00 Legend Double Dagger 3.1 2.3 94 4 18 16.1 101.88     Rain
21:00 Legend Double Dagger 3.5 2.6 94 2 18 16.1 101.78     LegendNANA
22:00 Legend Double Dagger 3.8 2.8 93 2 21 16.1 101.76     LegendNANA
23:00 Legend Double Dagger 4.0 2.8 92 1 17 16.1 101.69     LegendNANA

Notes on Data Quality.

Legend

  • E = Estimated
  • M = Missing
  • NA = Not Available
  • ‡ = Partner data that is not subject to review by the National Climate Archives
Date modified: